[[{"header":{"parameterUnit":"m.s-1","parameterCategory":1,"la1":30.2991,"la2":30.254,"lo1":-89.0895,"lo2":-89.0444,"dy":0.0017,"dx":0.0017,"nx":28,"ny":28,"refTime":"2023-11-21T03:00:00:Z","depth":0,"parameterNumber":2,"parameterNumberName":"U-component_of_WINDS"},"data":[0,0,0,0,0,0,0,0,0,0,0,0,0,0,0,0,0,0,0,0,0,0,0,0,0,0,0,0,0,0,0,0,0,0,0,0,0,0,0,0,0,0,0,0,0,0,0,0,0,0,0,0,0,0,0,0,0,0,3.1942,3.1943,0,3.2034,3.2035,3.2036,3.2026,3.2025,3.2023,3.2022,3.2121,3.2125,3.2129,0,0,0,0,0,0,0,0,0,0,0,0,0,3.1766,3.177,3.1942,3.1943,3.1944,3.2033,3.2035,3.2036,3.2026,3.2025,3.2023,3.2021,3.2119,3.2124,3.2129,0,0,0,0,0,0,0,0,0,0,0,0,0,3.1849,3.1771,3.1942,3.195,3.1952,3.2033,3.2035,3.2036,3.2027,3.2025,3.2022,3.202,3.2118,3.2124,3.213,3.221,0,0,3.2148,3.215,0,0,0,0,0,0,0,0,3.1844,3.1855,3.1948,3.195,3.1952,3.2016,3.2009,3.2095,3.2027,3.1998,3.2022,3.2019,3.2088,3.2096,3.2118,3.2215,3.2219,3.2148,3.2152,3.2155,3.2156,0,0,0,0,0,0,0,3.1839,3.1851,3.1978,3.1949,3.1951,3.1952,3.1961,3.2025,3.2055,3.2001,3.2,3.2011,3.2089,3.2113,3.2121,3.222,3.2148,3.2153,3.2157,3.216,3.2395,3.2397,0,0,0,0,0,0,3.183,3.1847,3.1975,3.1981,3.1891,3.1957,3.1967,3.1998,3.2054,3.206,3.2013,3.201,3.2104,3.2114,3.2124,3.2227,3.2154,3.216,3.2164,3.2392,3.2395,3.2398,0,0,0,0,0,0,3.1826,3.1841,3.1972,3.1914,3.193,3.1962,3.1996,3.2001,3.2025,3.2063,3.2069,3.2031,3.2102,3.2116,3.219,3.223,3.2163,3.2168,3.2389,3.2393,3.2397,3.243,0,0,0,0,0,0,3.1821,3.184,3.1869,3.1914,3.1933,3.2033,3.1999,3.2004,3.2034,3.2032,3.2082,3.2088,3.2102,3.2181,3.2196,3.2237,3.2173,3.2386,3.2391,3.2396,3.2426,3.2435,3.2443,0,0,0,0,0,3.1815,3.1874,3.187,3.1886,3.197,3.2035,3.2047,3.206,3.2037,3.2069,3.2094,3.2086,3.2223,3.2189,3.2205,3.2249,3.2383,3.2389,3.2395,3.2422,3.2433,3.2442,0,0,0,0,0,0,3.1832,3.188,3.1876,3.1951,3.199,3.2034,3.2073,3.207,3.2116,3.2112,3.2128,3.214,3.2216,3.2239,3.2201,3.2333,3.2301,3.231,3.2315,3.2326,3.2334,3.2328,3.2178,0,0,0,0,0,3.1845,3.1892,3.1932,3.1995,3.2014,3.204,3.2069,3.2077,3.2117,3.2134,3.2164,3.2206,3.2259,3.2293,3.2344,3.2429,3.2443,3.2467,3.2476,3.2483,3.2492,3.2545,3.2558,3.2418,3.2418,3.2418,0,0,3.1871,3.1903,3.1932,3.1999,3.2029,3.2082,3.2054,3.2109,3.2149,3.2143,3.2216,3.224,3.2288,3.237,3.2407,3.2392,3.2533,3.249,3.2495,3.2501,3.2552,3.2565,3.2577,3.2422,3.2421,3.2421,0,0,3.1946,3.1973,3.2031,3.2063,3.211,3.2128,3.2142,3.2188,3.2204,3.2277,3.2275,3.2324,3.2413,3.245,3.248,3.2575,3.2572,3.2591,3.2636,3.2687,3.2699,3.2708,3.2747,3.2761,3.2599,3.2599,3.2599,0,3.1974,3.205,3.2061,3.2119,3.2151,3.2147,3.2209,3.224,3.2301,3.2325,3.2306,3.2422,3.2453,3.2547,3.257,3.2593,3.2614,3.2586,3.2695,3.2706,3.2715,3.2753,3.2767,3.2601,3.2601,3.2601,3.2601,0,3.2084,3.2138,3.218,3.224,3.2276,3.2335,3.2359,3.2395,3.24,3.2421,3.25,3.2538,3.2599,3.2621,3.2625,3.2717,3.2706,3.2691,3.2659,3.2731,3.2767,3.278,3.2605,3.2604,3.2603,3.2603,0,0,3.2172,3.224,3.2256,3.2286,3.2339,3.2382,3.2443,3.2502,3.2536,3.2579,3.2634,3.2712,3.27,3.2735,3.2744,3.2789,3.2869,3.277,3.2771,3.2791,3.2978,3.2992,3.3007,3.2866,3.2869,3.2871,3.2976,0,3.2256,3.2362,3.2377,3.2473,3.2526,3.2526,3.258,3.2621,3.2644,3.2694,3.272,3.2777,3.2754,3.2776,3.282,3.285,3.2907,3.2842,3.2922,3.2925,3.2913,3.3025,3.3038,3.3135,3.2989,3.2991,3.2993,0,3.2368,3.2416,3.2517,3.2569,3.2592,3.2639,3.2698,3.2745,3.2793,3.2807,3.2848,3.2853,3.2921,3.2885,3.2982,3.2937,3.2972,3.2992,3.2996,3.3006,3.2965,3.3043,3.3165,3.3181,3.3014,3.3013,3.3011,0,3.2428,3.2517,3.2591,3.2616,3.2676,3.2711,3.2739,3.2785,3.2821,3.2873,3.2898,3.2957,3.299,3.3038,3.3061,3.3031,3.3159,3.3123,3.3176,3.3176,3.3204,3.3203,3.3338,3.322,3.322,3.322,3.322,0,3.2522,3.2585,3.2619,3.2665,3.2738,3.2755,3.2828,3.2854,3.2897,3.2951,3.2953,3.3005,3.303,3.3087,3.3105,3.3186,3.32,3.3216,3.3221,3.3218,3.3217,3.3243,3.3238,3.3224,3.3223,3.3222,3.3221,0,3.2601,3.2626,3.2707,3.2759,3.2774,3.2826,3.2872,3.2919,3.2942,3.3011,3.3028,3.3065,3.3132,3.316,3.3241,3.3254,3.3349,3.3346,3.3332,3.3335,3.3388,3.3385,3.3548,3.3572,3.3434,3.3436,3.3437,0,3.2661,3.271,3.2769,3.2805,3.2833,3.2891,3.2929,3.295,3.299,3.3052,3.3093,3.3159,3.3214,3.3322,3.3358,3.3423,3.3424,3.3477,3.3434,3.3432,3.3431,3.3429,3.3437,3.3486,3.3487,3.3489,3.3489,0,3.2767,3.2779,3.2832,3.2892,3.2938,3.2986,3.3033,3.3063,3.3092,3.3137,3.3206,3.3248,3.3334,3.3402,3.3469,3.3501,3.3503,3.3503,3.3519,3.3518,3.351,3.352,3.3358,3.3499,3.3498,3.3498,3.3497,3.3497,3.2842,3.2888,3.2938,3.2999,3.3037,3.3082,3.3131,3.3161,3.3218,3.3288,3.3298,3.3373,3.3426,3.3516,3.3551,3.3612,3.3599,3.3622,3.3628,3.3635,3.3641,3.3498,3.3624,3.3624,3.3624,3.3623,3.3623,0,3.2953,3.2985,3.3042,3.3109,3.3159,3.3154,3.3207,3.325,3.3316,3.3364,3.3419,3.3501,3.3568,3.3611,3.368,3.3722,3.3725,3.374,3.3739,3.3748,3.3646,3.3627,3.3737,3.3737,3.3737,3.3737,3.3737,3.3737,3.3016,3.3095,3.3113,3.3213,3.3246,3.3319,3.3351,3.3394,3.3434,3.3525,3.3581,3.3608,3.3656,3.373,3.3794,3.3805,3.3832,3.3849,3.386,3.3765,3.3754,3.3743,3.3725,3.3854,3.3854,3.3957,3.3958,3.3959]},{"header":{"parameterUnit":"m.s-1","parameterCategory":1,"la1":30.2991,"la2":30.254,"lo1":-89.0895,"lo2":-89.0444,"dy":0.0017,"dx":0.0017,"nx":28,"ny":28,"refTime":"2023-11-21T03:00:00:Z","depth":0,"parameterNumber":3,"parameterNumberName":"V-component_of_WINDS"},"data":[0,0,0,0,0,0,0,0,0,0,0,0,0,0,0,0,0,0,0,0,0,0,0,0,0,0,0,0,0,0,0,0,0,0,0,0,0,0,0,0,0,0,0,0,0,0,0,0,0,0,0,0,0,0,0,0,0,0,-1.4992,-1.4989,0,-1.4688,-1.4684,-1.4681,-1.4619,-1.4621,-1.4624,-1.4626,-1.43,-1.4289,-1.4278,0,0,0,0,0,0,0,0,0,0,0,0,0,-1.5506,-1.5497,-1.4992,-1.4988,-1.4985,-1.4688,-1.4684,-1.468,-1.4619,-1.4621,-1.4624,-1.4627,-1.4303,-1.429,-1.4277,0,0,0,0,0,0,0,0,0,0,0,0,0,-1.525,-1.5494,-1.4993,-1.4919,-1.4909,-1.4689,-1.4684,-1.4679,-1.4618,-1.4622,-1.4625,-1.4628,-1.4307,-1.4292,-1.4275,-1.4103,0,0,-1.4225,-1.4218,0,0,0,0,0,0,0,0,-1.5265,-1.5231,-1.4933,-1.4923,-1.4912,-1.4695,-1.4745,-1.4485,-1.4617,-1.4728,-1.4626,-1.463,-1.4427,-1.4401,-1.4336,-1.4088,-1.4074,-1.4224,-1.4214,-1.4207,-1.4202,0,0,0,0,0,0,0,-1.5283,-1.5244,-1.4871,-1.4929,-1.4916,-1.4896,-1.4864,-1.4696,-1.4561,-1.4719,-1.4714,-1.4679,-1.4422,-1.4352,-1.4328,-1.4069,-1.4224,-1.421,-1.42,-1.4193,-1.3663,-1.3659,0,0,0,0,0,0,-1.5315,-1.5259,-1.4881,-1.4862,-1.5101,-1.4884,-1.4848,-1.4761,-1.4563,-1.4536,-1.4676,-1.4677,-1.4378,-1.4347,-1.4316,-1.4101,-1.4207,-1.4192,-1.4182,-1.3667,-1.3662,-1.3657,0,0,0,0,0,0,-1.5327,-1.5282,-1.4893,-1.5059,-1.5008,-1.4871,-1.4775,-1.4753,-1.4683,-1.4531,-1.4505,-1.4631,-1.438,-1.4339,-1.4157,-1.4089,-1.4184,-1.417,-1.3672,-1.3666,-1.366,-1.3671,0,0,0,0,0,0,-1.5342,-1.5287,-1.5224,-1.5059,-1.5,-1.4744,-1.477,-1.4745,-1.4657,-1.4655,-1.4481,-1.4455,-1.4379,-1.4182,-1.4141,-1.4068,-1.4157,-1.3678,-1.3669,-1.3662,-1.3676,-1.3665,-1.3656,0,0,0,0,0,-1.536,-1.5236,-1.5221,-1.5175,-1.4918,-1.474,-1.4706,-1.4626,-1.4652,-1.4584,-1.4487,-1.4461,-1.4104,-1.4164,-1.4117,-1.4038,-1.3682,-1.3672,-1.3662,-1.368,-1.3667,-1.3657,0,0,0,0,0,0,-1.5391,-1.5213,-1.5194,-1.5013,-1.4893,-1.4731,-1.4643,-1.4615,-1.4481,-1.4484,-1.4385,-1.4346,-1.417,-1.4085,-1.4156,-1.3861,-1.3893,-1.3874,-1.3923,-1.3909,-1.39,-1.3923,-1.4143,0,0,0,0,0,-1.5378,-1.5253,-1.5101,-1.4956,-1.4897,-1.4781,-1.47,-1.4649,-1.4518,-1.4466,-1.4354,-1.4225,-1.4083,-1.3991,-1.3852,-1.3663,-1.3623,-1.3585,-1.3576,-1.3569,-1.3553,-1.3445,-1.3426,-1.3626,-1.3626,-1.3626,0,0,-1.5346,-1.5234,-1.516,-1.4959,-1.486,-1.4729,-1.4738,-1.4599,-1.4499,-1.4443,-1.4266,-1.418,-1.4028,-1.3842,-1.3754,-1.3766,-1.3489,-1.3557,-1.3552,-1.3539,-1.3433,-1.3415,-1.3398,-1.3619,-1.362,-1.3621,0,0,-1.5223,-1.5127,-1.4995,-1.4897,-1.4748,-1.4672,-1.4641,-1.4482,-1.4424,-1.4246,-1.4201,-1.4078,-1.3837,-1.3731,-1.3645,-1.3482,-1.3453,-1.3439,-1.3388,-1.3285,-1.3269,-1.3255,-1.3195,-1.3176,-1.3424,-1.3424,-1.3424,0,-1.5202,-1.5008,-1.493,-1.4793,-1.4705,-1.4653,-1.4517,-1.4423,-1.4235,-1.4173,-1.419,-1.3887,-1.378,-1.3569,-1.353,-1.3462,-1.342,-1.3458,-1.3279,-1.3263,-1.3248,-1.3191,-1.3169,-1.3423,-1.3423,-1.3423,-1.3423,0,-1.4989,-1.4854,-1.4764,-1.459,-1.4491,-1.4355,-1.4252,-1.4161,-1.4118,-1.4039,-1.3856,-1.3728,-1.3562,-1.3508,-1.3462,-1.3288,-1.3301,-1.33,-1.333,-1.323,-1.3174,-1.3152,-1.3422,-1.3423,-1.3423,-1.3423,0,0,-1.4875,-1.4662,-1.463,-1.455,-1.4383,-1.4274,-1.4134,-1.3977,-1.39,-1.3771,-1.3649,-1.3447,-1.3445,-1.3348,-1.3289,-1.3199,-1.3077,-1.3207,-1.3202,-1.3187,-1.2875,-1.2878,-1.2854,-1.3057,-1.3052,-1.3049,-1.2888,0,-1.4732,-1.4487,-1.4412,-1.4204,-1.4077,-1.4026,-1.3903,-1.3785,-1.3707,-1.3584,-1.3494,-1.3353,-1.3362,-1.3303,-1.3211,-1.3112,-1.3013,-1.3122,-1.2938,-1.2933,-1.2978,-1.2824,-1.2826,-1.2681,-1.2866,-1.2862,-1.2859,0,-1.4532,-1.4406,-1.4187,-1.4036,-1.398,-1.3872,-1.3721,-1.3606,-1.3469,-1.3418,-1.3311,-1.326,-1.3108,-1.3148,-1.2935,-1.3011,-1.2931,-1.2871,-1.2863,-1.2842,-1.289,-1.2798,-1.2632,-1.2611,-1.2824,-1.2827,-1.2829,0,-1.4471,-1.4245,-1.4085,-1.4018,-1.3838,-1.3763,-1.3684,-1.3551,-1.3461,-1.3328,-1.3268,-1.3117,-1.3034,-1.2916,-1.2825,-1.2863,-1.2619,-1.2652,-1.2569,-1.2572,-1.2519,-1.2524,-1.2338,-1.2469,-1.247,-1.247,-1.2471,0,-1.4318,-1.4186,-1.4056,-1.3957,-1.3806,-1.372,-1.3571,-1.3488,-1.3371,-1.3252,-1.3196,-1.3085,-1.2972,-1.2844,-1.2771,-1.2604,-1.2567,-1.2519,-1.2501,-1.2523,-1.253,-1.2469,-1.2476,-1.2464,-1.2466,-1.2467,-1.2468,0,-1.4225,-1.4133,-1.3955,-1.38,-1.3758,-1.3654,-1.3519,-1.3419,-1.3339,-1.3189,-1.3148,-1.3021,-1.2868,-1.2766,-1.2568,-1.2519,-1.2338,-1.2322,-1.2386,-1.2377,-1.2301,-1.2309,-1.2069,-1.2032,-1.2189,-1.2188,-1.2187,0,-1.4133,-1.4031,-1.3867,-1.3786,-1.3708,-1.3577,-1.3487,-1.3396,-1.3303,-1.314,-1.3059,-1.2904,-1.2774,-1.2531,-1.2418,-1.2266,-1.2246,-1.2172,-1.2222,-1.2248,-1.2243,-1.2251,-1.2239,-1.2164,-1.2163,-1.2162,-1.2161,0,-1.398,-1.394,-1.3815,-1.3673,-1.3568,-1.345,-1.3331,-1.3267,-1.3155,-1.3053,-1.2899,-1.2799,-1.26,-1.2444,-1.2283,-1.2195,-1.2157,-1.2146,-1.2119,-1.2141,-1.2182,-1.2158,-1.2364,-1.2152,-1.2153,-1.2153,-1.2154,-1.2154,-1.3884,-1.3791,-1.3662,-1.3523,-1.3426,-1.3317,-1.3216,-1.3125,-1.2996,-1.2831,-1.2784,-1.2622,-1.2485,-1.2265,-1.2175,-1.2045,-1.2052,-1.2012,-1.2002,-1.1994,-1.1994,-1.2204,-1.2015,-1.2015,-1.2015,-1.2015,-1.2015,0,-1.3728,-1.3643,-1.3517,-1.3356,-1.3246,-1.3226,-1.3094,-1.3002,-1.2862,-1.274,-1.2616,-1.2437,-1.2287,-1.2163,-1.2007,-1.1925,-1.1904,-1.1887,-1.1892,-1.1872,-1.1996,-1.2036,-1.1907,-1.1907,-1.1907,-1.1907,-1.1907,-1.1907,-1.3634,-1.3476,-1.342,-1.3212,-1.3125,-1.2971,-1.2897,-1.2795,-1.2698,-1.2503,-1.238,-1.2302,-1.2178,-1.2012,-1.1872,-1.1839,-1.1783,-1.177,-1.1733,-1.1851,-1.1863,-1.1875,-1.1911,-1.1759,-1.1759,-1.1619,-1.1618,-1.1617]}]]